QPF
0.00 0.00 0.00 0.00 0.00 0.00 0.00 0.01 0.02 0.02 0.01 0.00 0.00 0.00 0.00 0.00 0.00 0.00 0.00 0.00 0.00 0.01 0.01 0.01 0.01 0.01 0.01 0.01 0.01 0.01 0.01 0.02 0.02 0.03 0.03 0.02 0.02 0.01
0.00 0.00 0.00 0.00 0.00 0.00 0.00 0.00 0.01 0.03 0.03 0.01 0.01 0.00 0.00 0.00 0.00 0.00 0.00 0.00 0.01 0.01 0.02 0.02 0.02 0.02 0.01 0.01 0.01 0.01 0.01 0.01 0.01 0.01 0.01 0.01 0.01 0.01
0.00 0.00 0.00 0.00 0.00 0.00 0.00 0.00 0.01 0.02 0.03 0.02 0.01 0.00 0.00 0.00 0.00 0.00 0.00 0.00 0.01 0.02 0.03 0.03 0.02 0.02 0.01 0.01 0.01 0.01 0.01 0.01 0.01 0.01 0.01 0.01 0.00 0.00
0.00 0.00 0.00 0.00 0.00 0.00 0.00 0.01 0.01 0.02 0.03 0.03 0.01 0.00 0.00 0.00 0.00 0.00 0.00 0.01 0.02 0.04 0.04 0.03 0.02 0.02 0.01 0.01 0.01 0.01 0.01 0.01 0.01 0.01 0.00 0.00 0.00 0.00
0.00 0.00 0.00 0.00 0.00 0.00 0.01 0.01 0.02 0.02 0.02 0.02 0.01 0.00 0.00 0.00 0.00 0.01 0.01 0.02 0.03 0.04 0.03 0.03 0.02 0.01 0.01 0.00 0.00 0.00 0.00 0.00 0.00 0.00 0.00 0.00 0.00 0.00
0.00 0.00 0.00 0.00 0.00 0.01 0.02 0.02 0.02 0.02 0.01 0.01 0.01 0.01 0.00 0.00 0.01 0.02 0.03 0.03 0.03 0.02 0.02 0.01 0.01 0.01 0.01 0.01 0.01 0.01 0.01 0.00 0.00 0.00 0.00 0.00 0.00 0.00
0.00 0.00 0.00 0.00 0.01 0.02 0.03 0.02 0.02 0.02 0.02 0.02 0.02 0.02 0.01 0.01 0.02 0.03 0.04 0.04 0.03 0.02 0.01 0.00 0.00 0.01 0.04 0.06 0.06 0.05 0.03 0.01 0.01 0.00 0.00 0.00 0.00 0.00
0.00 0.00 0.00 0.00 0.00 0.01 0.01 0.01 0.02 0.03 0.04 0.05 0.06 0.04 0.02 0.02 0.04 0.05 0.05 0.04 0.03 0.02 0.01 0.01 0.02 0.07 0.10 0.10 0.10 0.07 0.04 0.02 0.02 0.01 0.01 0.01 0.01 0.01
0.00 0.00 0.00 0.00 0.00 0.00 0.00 0.00 0.01 0.03 0.07 0.10 0.10 0.06 0.04 0.04 0.05 0.05 0.04 0.03 0.03 0.02 0.01 0.02 0.05 0.10 0.16 0.21 0.23 0.16 0.08 0.05 0.04 0.03 0.02 0.02 0.02 0.04
0.00 0.00 0.00 0.00 0.00 0.01 0.01 0.01 0.02 0.05 0.10 0.11 0.12 0.09 0.06 0.05 0.04 0.04 0.04 0.03 0.02 0.01 0.01 0.04 0.09 0.18 0.29 0.33 0.40 0.29 0.15 0.09 0.08 0.06 0.04 0.04 0.05 0.08
0.00 0.00 0.00 0.00 0.01 0.01 0.01 0.02 0.06 0.12 0.16 0.15 0.11 0.08 0.06 0.06 0.04 0.04 0.04 0.03 0.03 0.02 0.02 0.05 0.12 0.23 0.36 0.41 0.41 0.36 0.24 0.17 0.13 0.10 0.08 0.08 0.10 0.14
0.00 0.00 0.00 0.01 0.01 0.02 0.03 0.06 0.11 0.18 0.18 0.15 0.09 0.06 0.05 0.05 0.06 0.06 0.04 0.04 0.03 0.02 0.02 0.07 0.13 0.21 0.32 0.40 0.34 0.26 0.23 0.26 0.26 0.24 0.21 0.17 0.14 0.15
0.01 0.01 0.01 0.02 0.02 0.03 0.07 0.12 0.17 0.21 0.19 0.13 0.06 0.03 0.02 0.03 0.04 0.04 0.03 0.03 0.02 0.01 0.02 0.06 0.11 0.15 0.21 0.30 0.37 0.32 0.24 0.23 0.26 0.34 0.40 0.33 0.22 0.18
0.03 0.03 0.03 0.03 0.04 0.08 0.12 0.17 0.22 0.22 0.17 0.09 0.04 0.02 0.02 0.02 0.02 0.02 0.01 0.01 0.01 0.01 0.02 0.04 0.09 0.15 0.14 0.16 0.29 0.36 0.36 0.36 0.35 0.38 0.43 0.43 0.36 0.33
0.03 0.04 0.04 0.06 0.09 0.13 0.19 0.23 0.24 0.21 0.13 0.06 0.03 0.02 0.01 0.01 0.01 0.01 0.01 0.01 0.01 0.02 0.03 0.05 0.09 0.16 0.14 0.12 0.22 0.29 0.38 0.48 0.47 0.47 0.45 0.41 0.39 0.37
0.03 0.03 0.06 0.10 0.15 0.20 0.23 0.25 0.24 0.19 0.10 0.03 0.02 0.02 0.01 0.01 0.01 0.01 0.02 0.02 0.02 0.04 0.05 0.07 0.11 0.16 0.18 0.16 0.19 0.23 0.27 0.42 0.49 0.45 0.42 0.41 0.41 0.39
0.04 0.04 0.07 0.11 0.17 0.21 0.23 0.22 0.20 0.15 0.07 0.02 0.01 0.01 0.01 0.01 0.02 0.02 0.02 0.02 0.03 0.04 0.05 0.07 0.12 0.17 0.19 0.19 0.19 0.21 0.23 0.31 0.37 0.34 0.30 0.29 0.29 0.27
0.05 0.07 0.10 0.14 0.18 0.21 0.21 0.19 0.16 0.11 0.06 0.02 0.02 0.01 0.02 0.02 0.02 0.02 0.02 0.02 0.03 0.04 0.05 0.06 0.07 0.09 0.14 0.17 0.16 0.14 0.15 0.19 0.22 0.22 0.17 0.14 0.13 0.12
0.07 0.10 0.13 0.16 0.18 0.19 0.18 0.15 0.13 0.10 0.05 0.03 0.02 0.02 0.02 0.02 0.02 0.03 0.03 0.03 0.04 0.04 0.05 0.04 0.03 0.02 0.03 0.07 0.09 0.08 0.08 0.08 0.10 0.11 0.09 0.07 0.05 0.04
0.09 0.12 0.14 0.14 0.16 0.16 0.15 0.14 0.13 0.10 0.07 0.04 0.03 0.03 0.02 0.03 0.03 0.03 0.03 0.03 0.03 0.03 0.02 0.02 0.01 0.00 0.00 0.01 0.02 0.03 0.03 0.03 0.03 0.03 0.03 0.03 0.02 0.01
0.11 0.13 0.13 0.12 0.12 0.12 0.12 0.12 0.12 0.10 0.08 0.06 0.04 0.03 0.03 0.03 0.03 0.02 0.02 0.02 0.01 0.01 0.01 0.01 0.00 0.00 0.00 0.00 0.00 0.00 0.00 0.00 0.00 0.01 0.01 0.01 0.01 0.01
0.10 0.12 0.11 0.09 0.08 0.08 0.08 0.08 0.08 0.08 0.07 0.07 0.05 0.04 0.03 0.02 0.02 0.01 0.01 0.01 0.01 0.00 0.00 0.00 0.00 0.00 0.00 0.00 0.00 0.00 0.00 0.00 0.00 0.00 0.00 0.00 0.00 0.00
0.08 0.10 0.10 0.08 0.06 0.04 0.04 0.04 0.05 0.05 0.06 0.05 0.05 0.04 0.03 0.02 0.01 0.01 0.00 0.00 0.00 0.00 0.00 0.00 0.00 0.00 0.00 0.00 0.00 0.00 0.00 0.00 0.00 0.00 0.00 0.00 0.00 0.00
MSLP
1019.65 1019.44 1019.13 1018.70 1018.15 1017.48 1016.73 1015.92 1015.11 1014.34 1013.64 1013.03 1012.52 1012.11 1011.76 1011.46 1011.17 1010.88 1010.59 1010.29 1010.00 1009.74 1009.52 1009.34 1009.22 1009.16 1009.13 1009.15 1009.22 1009.32 1009.48 1009.69 1009.96 1010.28 1010.64 1011.04 1011.42 1011.76
1019.30 1019.06 1018.72 1018.27 1017.71 1017.05 1016.31 1015.52 1014.73 1013.98 1013.27 1012.64 1012.10 1011.62 1011.21 1010.83 1010.48 1010.15 1009.83 1009.54 1009.29 1009.09 1008.94 1008.86 1008.82 1008.84 1008.89 1008.98 1009.10 1009.24 1009.43 1009.67 1009.95 1010.27 1010.62 1010.97 1011.30 1011.57
1018.84 1018.55 1018.18 1017.72 1017.15 1016.50 1015.79 1015.04 1014.28 1013.55 1012.85 1012.21 1011.63 1011.11 1010.64 1010.21 1009.82 1009.47 1009.15 1008.89 1008.69 1008.55 1008.47 1008.45 1008.47 1008.53 1008.62 1008.73 1008.86 1009.02 1009.22 1009.47 1009.76 1010.10 1010.45 1010.80 1011.11 1011.34
1018.32 1017.99 1017.58 1017.09 1016.52 1015.88 1015.19 1014.47 1013.74 1013.02 1012.33 1011.68 1011.08 1010.53 1010.03 1009.58 1009.18 1008.84 1008.56 1008.35 1008.21 1008.12 1008.10 1008.10 1008.14 1008.18 1008.23 1008.29 1008.38 1008.49 1008.66 1008.90 1009.20 1009.56 1009.95 1010.34 1010.68 1010.94
1017.77 1017.39 1016.94 1016.42 1015.84 1015.20 1014.52 1013.81 1013.09 1012.38 1011.68 1011.02 1010.40 1009.84 1009.34 1008.90 1008.53 1008.25 1008.04 1007.90 1007.83 1007.80 1007.79 1007.79 1007.77 1007.72 1007.66 1007.59 1007.54 1007.54 1007.63 1007.82 1008.12 1008.51 1008.97 1009.45 1009.89 1010.25
1017.23 1016.79 1016.28 1015.72 1015.12 1014.46 1013.77 1013.06 1012.33 1011.61 1010.90 1010.23 1009.60 1009.04 1008.56 1008.16 1007.87 1007.66 1007.55 1007.51 1007.51 1007.53 1007.52 1007.46 1007.34 1007.14 1006.89 1006.61 1006.36 1006.18 1006.14 1006.24 1006.52 1006.95 1007.51 1008.12 1008.72 1009.24
1016.68 1016.16 1015.60 1015.00 1014.35 1013.67 1012.96 1012.23 1011.48 1010.74 1010.02 1009.34 1008.71 1008.16 1007.72 1007.39 1007.18 1007.08 1007.08 1007.15 1007.23 1007.28 1007.25 1007.11 1006.85 1006.45 1005.96 1005.43 1004.93 1004.54 1004.32 1004.32 1004.56 1005.02 1005.68 1006.44 1007.24 1007.98
1016.10 1015.51 1014.88 1014.23 1013.54 1012.83 1012.09 1011.34 1010.58 1009.83 1009.09 1008.41 1007.79 1007.28 1006.88 1006.63 1006.52 1006.54 1006.65 1006.82 1006.97 1007.05 1007.00 1006.77 1006.35 1005.76 1005.03 1004.23 1003.48 1002.85 1002.45 1002.33 1002.52 1003.01 1003.75 1004.68 1005.68 1006.66
1015.47 1014.80 1014.12 1013.41 1012.69 1011.96 1011.21 1010.46 1009.70 1008.94 1008.22 1007.55 1006.96 1006.48 1006.16 1005.98 1005.97 1006.09 1006.31 1006.56 1006.78 1006.88 1006.80 1006.50 1005.95 1005.18 1004.24 1003.23 1002.25 1001.43 1000.86 1000.63 1000.76 1001.26 1002.08 1003.14 1004.31 1005.50
1014.78 1014.04 1013.30 1012.56 1011.82 1011.09 1010.36 1009.63 1008.90 1008.18 1007.50 1006.87 1006.34 1005.92 1005.66 1005.56 1005.62 1005.82 1006.12 1006.44 1006.70 1006.83 1006.73 1006.38 1005.76 1004.88 1003.81 1002.65 1001.53 1000.57 999.89 999.58 999.67 1000.17 1001.02 1002.16 1003.45 1004.78
1014.04 1013.24 1012.45 1011.69 1010.96 1010.26 1009.58 1008.91 1008.26 1007.63 1007.03 1006.48 1006.03 1005.68 1005.48 1005.44 1005.56 1005.81 1006.15 1006.50 1006.79 1006.93 1006.85 1006.49 1005.85 1004.95 1003.85 1002.66 1001.50 1000.50 999.78 999.43 999.49 999.97 1000.83 1001.98 1003.31 1004.70
1013.30 1012.45 1011.63 1010.87 1010.17 1009.53 1008.93 1008.38 1007.84 1007.34 1006.86 1006.44 1006.08 1005.82 1005.68 1005.68 1005.83 1006.09 1006.43 1006.78 1007.07 1007.22 1007.16 1006.85 1006.26 1005.43 1004.40 1003.29 1002.20 1001.26 1000.58 1000.25 1000.32 1000.78 1001.59 1002.70 1003.99 1005.35
1012.62 1011.73 1010.90 1010.16 1009.51 1008.95 1008.47 1008.05 1007.67 1007.33 1007.01 1006.72 1006.48 1006.32 1006.24 1006.27 1006.40 1006.64 1006.94 1007.26 1007.53 1007.68 1007.66 1007.42 1006.94 1006.25 1005.40 1004.47 1003.55 1002.77 1002.21 1001.96 1002.05 1002.49 1003.25 1004.26 1005.44 1006.69
1012.07 1011.15 1010.33 1009.62 1009.04 1008.58 1008.22 1007.96 1007.75 1007.58 1007.43 1007.30 1007.19 1007.11 1007.08 1007.11 1007.22 1007.40 1007.64 1007.89 1008.11 1008.26 1008.27 1008.13 1007.81 1007.32 1006.70 1006.02 1005.36 1004.80 1004.42 1004.29 1004.44 1004.87 1005.56 1006.46 1007.48 1008.57
1011.70 1010.79 1009.98 1009.31 1008.80 1008.44 1008.21 1008.09 1008.04 1008.05 1008.07 1008.08 1008.09 1008.09 1008.10 1008.12 1008.18 1008.28 1008.42 1008.59 1008.75 1008.87 1008.93 1008.89 1008.73 1008.47 1008.12 1007.74 1007.37 1007.07 1006.92 1006.94 1007.17 1007.60 1008.23 1009.00 1009.86 1010.76
1011.57 1010.67 1009.90 1009.28 1008.82 1008.55 1008.42 1008.43 1008.52 1008.67 1008.83 1008.97 1009.08 1009.15 1009.17 1009.17 1009.18 1009.19 1009.23 1009.30 1009.39 1009.48 1009.57 1009.62 1009.63 1009.59 1009.51 1009.42 1009.34 1009.32 1009.38 1009.57 1009.89 1010.34 1010.91 1011.57 1012.28 1013.01
1011.70 1010.84 1010.11 1009.53 1009.13 1008.91 1008.86 1008.95 1009.14 1009.39 1009.65 1009.89 1010.07 1010.17 1010.20 1010.18 1010.12 1010.05 1010.00 1009.98 1010.00 1010.07 1010.17 1010.30 1010.45 1010.60 1010.76 1010.92 1011.11 1011.32 1011.59 1011.93 1012.33 1012.80 1013.34 1013.91 1014.50 1015.10
1012.09 1011.29 1010.60 1010.06 1009.69 1009.51 1009.50 1009.63 1009.87 1010.17 1010.48 1010.76 1010.98 1011.10 1011.13 1011.09 1010.98 1010.85 1010.72 1010.63 1010.60 1010.64 1010.76 1010.95 1011.20 1011.51 1011.84 1012.21 1012.59 1013.00 1013.42 1013.87 1014.34 1014.83 1015.33 1015.85 1016.36 1016.86
1012.70 1011.97 1011.34 1010.83 1010.48 1010.31 1010.29 1010.42 1010.66 1010.96 1011.28 1011.57 1011.79 1011.92 1011.94 1011.88 1011.75 1011.58 1011.42 1011.29 1011.23 1011.27 1011.40 1011.64 1011.96 1012.36 1012.82 1013.32 1013.83 1014.35 1014.88 1015.39 1015.90 1016.39 1016.88 1017.35 1017.81 1018.25
1013.50 1012.84 1012.26 1011.79 1011.44 1011.25 1011.21 1011.30 1011.49 1011.76 1012.04 1012.30 1012.51 1012.63 1012.65 1012.58 1012.45 1012.29 1012.12 1012.00 1011.95 1011.99 1012.15 1012.43 1012.80 1013.26 1013.78 1014.34 1014.92 1015.49 1016.05 1016.58 1017.09 1017.57 1018.03 1018.47 1018.89 1019.31
1014.43 1013.84 1013.31 1012.85 1012.50 1012.28 1012.18 1012.21 1012.34 1012.53 1012.76 1012.97 1013.15 1013.25 1013.28 1013.23 1013.12 1012.99 1012.87 1012.78 1012.77 1012.86 1013.06 1013.36 1013.76 1014.25 1014.79 1015.36 1015.94 1016.51 1017.05 1017.56 1018.04 1018.48 1018.90 1019.31 1019.72 1020.12
1015.43 1014.89 1014.39 1013.94 1013.58 1013.31 1013.16 1013.11 1013.16 1013.27 1013.43 1013.59 1013.72 1013.81 1013.85 1013.83 1013.78 1013.71 1013.65 1013.64 1013.70 1013.85 1014.09 1014.43 1014.86 1015.35 1015.88 1016.43 1016.97 1017.50 1017.99 1018.44 1018.86 1019.25 1019.63 1020.00 1020.38 1020.78
1016.44 1015.94 1015.45 1015.00 1014.61 1014.30 1014.09 1013.97 1013.93 1013.96 1014.04 1014.14 1014.24 1014.32 1014.37 1014.40 1014.41 1014.42 1014.45 1014.53 1014.67 1014.89 1015.20 1015.57 1016.02 1016.50 1017.01 1017.52 1018.01 1018.47 1018.88 1019.27 1019.62 1019.96 1020.28 1020.62 1020.98 1021.36
Thickness
5473 5469 5465 5463 5459 5456 5453 5451 5452 5460 5468 5466 5463 5463 5461 5462 5465 5468 5471 5473 5476 5479 5483 5486 5490 5495 5499 5503 5508 5512 5517 5521 5525 5529 5533 5536 5541 5546
5461 5457 5453 5450 5447 5444 5442 5440 5438 5441 5450 5456 5454 5453 5452 5454 5458 5461 5465 5468 5471 5475 5479 5483 5486 5489 5492 5495 5498 5501 5505 5509 5512 5516 5521 5525 5529 5535
5448 5444 5441 5437 5435 5433 5432 5431 5430 5430 5438 5446 5445 5445 5445 5448 5452 5456 5460 5463 5467 5471 5475 5479 5482 5484 5486 5488 5490 5492 5495 5498 5501 5505 5509 5514 5519 5526
5435 5431 5428 5426 5424 5422 5421 5422 5423 5423 5427 5435 5439 5438 5440 5443 5449 5453 5457 5462 5465 5468 5471 5475 5477 5479 5480 5481 5482 5484 5486 5488 5490 5494 5498 5504 5510 5516
5422 5418 5416 5414 5413 5412 5412 5414 5416 5419 5420 5424 5430 5433 5437 5441 5446 5451 5455 5458 5461 5463 5466 5468 5470 5471 5473 5474 5475 5477 5479 5481 5483 5485 5489 5494 5500 5507
5410 5406 5405 5404 5404 5404 5406 5409 5412 5415 5416 5419 5425 5431 5436 5441 5445 5449 5454 5455 5456 5457 5459 5461 5463 5464 5466 5468 5470 5472 5474 5476 5478 5480 5483 5487 5493 5500
5401 5398 5397 5397 5399 5401 5404 5406 5408 5410 5413 5417 5424 5430 5436 5441 5445 5449 5452 5452 5451 5451 5453 5456 5458 5459 5461 5463 5466 5470 5473 5477 5479 5480 5482 5484 5488 5495
5393 5392 5391 5393 5395 5397 5399 5402 5404 5408 5414 5418 5425 5431 5439 5443 5446 5448 5449 5448 5449 5447 5449 5452 5453 5454 5456 5459 5464 5470 5478 5484 5485 5485 5485 5485 5487 5492
5387 5386 5387 5390 5391 5393 5397 5401 5405 5410 5415 5421 5430 5437 5442 5446 5447 5448 5447 5447 5446 5444 5444 5448 5449 5450 5453 5457 5464 5476 5490 5497 5497 5493 5490 5487 5488 5491
5383 5383 5384 5388 5391 5393 5396 5402 5409 5415 5422 5429 5436 5442 5446 5447 5447 5447 5445 5442 5441 5440 5441 5442 5444 5445 5450 5455 5466 5481 5498 5505 5504 5499 5493 5489 5488 5491
5382 5383 5385 5388 5391 5393 5398 5405 5413 5421 5426 5432 5438 5442 5444 5445 5445 5444 5443 5443 5441 5439 5438 5438 5439 5439 5444 5451 5462 5476 5490 5497 5498 5495 5491 5488 5488 5491
5381 5383 5387 5389 5392 5395 5401 5408 5416 5423 5427 5432 5435 5438 5439 5440 5441 5442 5442 5441 5440 5439 5437 5436 5437 5437 5440 5443 5453 5464 5473 5479 5483 5484 5485 5486 5489 5494
5379 5383 5387 5390 5394 5400 5406 5413 5420 5424 5427 5430 5432 5433 5434 5435 5436 5437 5438 5439 5439 5437 5435 5436 5436 5437 5438 5440 5444 5450 5458 5464 5469 5471 5475 5480 5486 5493
5378 5382 5387 5392 5398 5406 5413 5419 5422 5425 5427 5428 5429 5428 5429 5430 5431 5433 5435 5435 5436 5435 5435 5436 5436 5436 5439 5440 5439 5440 5445 5450 5456 5460 5463 5469 5474 5479
5378 5384 5390 5396 5404 5411 5416 5420 5423 5424 5425 5425 5424 5423 5424 5425 5428 5431 5432 5433 5433 5433 5433 5435 5436 5436 5438 5438 5436 5437 5439 5437 5443 5450 5455 5459 5461 5466
5380 5386 5393 5400 5407 5412 5416 5418 5420 5420 5421 5421 5419 5419 5421 5424 5427 5429 5431 5432 5433 5432 5432 5433 5435 5436 5436 5435 5436 5435 5437 5435 5435 5442 5448 5449 5450 5453
5380 5387 5394 5401 5407 5411 5413 5415 5416 5417 5417 5417 5417 5418 5420 5422 5424 5426 5428 5431 5432 5432 5432 5432 5432 5434 5435 5436 5435 5433 5433 5432 5433 5438 5444 5445 5443 5447
5381 5387 5393 5399 5404 5408 5411 5412 5413 5413 5413 5414 5414 5415 5417 5419 5421 5423 5425 5428 5430 5431 5431 5431 5432 5434 5435 5432 5430 5432 5433 5432 5433 5436 5442 5445 5443 5444
5381 5385 5391 5396 5401 5405 5408 5410 5410 5410 5411 5411 5411 5412 5414 5415 5418 5420 5423 5426 5429 5430 5431 5432 5435 5438 5438 5433 5424 5426 5431 5432 5434 5436 5438 5441 5443 5442
5379 5383 5388 5393 5398 5402 5406 5408 5408 5409 5408 5408 5409 5409 5411 5413 5416 5418 5422 5425 5427 5429 5430 5431 5432 5433 5434 5431 5427 5423 5425 5430 5433 5435 5435 5437 5439 5439
5377 5381 5385 5390 5395 5400 5403 5406 5407 5407 5407 5407 5407 5407 5409 5412 5415 5418 5420 5422 5426 5427 5427 5426 5424 5426 5427 5429 5427 5423 5422 5424 5428 5431 5434 5436 5437 5437
5374 5378 5383 5387 5392 5397 5401 5403 5405 5405 5406 5405 5405 5406 5408 5411 5414 5418 5420 5422 5423 5424 5424 5424 5424 5426 5425 5424 5422 5421 5421 5422 5424 5427 5430 5433 5436 5436
5371 5375 5380 5385 5390 5394 5398 5401 5403 5404 5405 5405 5405 5406 5408 5411 5414 5417 5419 5421 5422 5423 5423 5422 5421 5421 5420 5419 5419 5418 5418 5419 5420 5422 5423 5426 5429 5428